Theta_e
308 307 307 306 306 305 306 306 304 304 303 303 302 302 302 300 300 299 297 296 296 294 292 291 290 290 289 289 289 290 290 290 291 291 292 292 293 292 291 292 291 289 288 288 289 288 287 286 286 286 286 285 285 285 285 285 285 285 285 285 284 284 285 282 280 280 283 283 285 284 285 284 283 284 283 283 283 283 283 282 282 282 282 282 282
307 307 306 306 305 305 305 305 304 302 302 301 301 300 300 299 298 296 295 295 294 292 291 291 290 289 289 289 289 289 289 289 290 290 291 291 291 291 290 290 289 287 287 286 286 287 286 285 284 284 285 284 284 283 283 283 283 283 282 283 283 284 284 284 280 280 279 281 282 284 283 284 281 284 282 282 282 283 282 282 283 282 282 281 281
308 307 306 305 304 304 304 303 301 301 301 300 300 299 298 296 295 295 294 293 292 292 292 290 289 289 288 288 288 288 288 288 289 289 290 289 289 289 290 289 288 286 286 285 286 286 285 284 283 284 285 283 282 282 282 282 282 282 281 281 280 282 283 284 281 279 279 280 281 280 281 282 281 281 283 283 283 282 281 281 281 282 282 282 281
307 306 305 304 304 303 303 303 300 300 300 301 301 299 297 294 293 293 293 291 290 291 291 290 289 288 287 287 287 287 287 287 288 288 289 289 289 288 288 288 288 287 286 285 284 284 284 283 283 283 283 282 281 281 281 281 281 281 281 281 280 281 281 281 281 280 280 279 280 279 281 280 280 282 283 282 281 280 281 281 282 281 281 282 281
305 305 304 303 303 302 302 301 299 298 298 298 299 298 297 294 292 292 292 290 290 290 289 289 288 287 286 286 286 286 287 287 287 287 288 288 288 288 288 287 287 286 285 284 285 284 284 283 282 282 282 281 281 280 280 280 280 280 280 281 280 281 282 281 281 280 279 279 279 281 281 280 281 281 281 280 280 280 280 280 280 281 281 281 282
304 303 303 302 302 301 301 300 298 297 296 295 295 295 295 294 292 291 291 290 290 290 288 288 288 286 286 286 286 286 286 286 286 287 287 287 287 287 287 287 286 285 284 284 284 284 283 283 282 282 282 281 281 280 280 280 280 280 280 281 281 281 281 280 280 279 279 279 279 279 281 280 279 280 280 280 279 279 279 280 280 281 280 280 280
303 302 302 302 301 300 300 299 297 297 296 295 295 294 294 293 291 290 290 289 289 288 287 287 287 287 286 286 286 285 285 285 286 286 286 286 286 286 286 285 285 284 284 284 283 283 284 283 282 282 282 282 281 280 280 280 281 280 281 281 281 281 281 280 280 280 279 279 279 280 280 280 280 278 280 280 279 279 278 278 278 280 280 280 279
301 301 301 301 300 299 299 299 297 297 296 295 294 294 293 290 289 289 289 289 288 287 287 286 287 286 286 286 286 285 285 285 285 285 285 286 285 285 285 284 283 283 283 283 283 283 283 283 282 282 282 282 281 281 282 281 281 280 281 281 281 281 280 281 280 280 280 279 279 279 280 280 279 280 280 279 278 278 279 278 277 278 279 281 281
300 300 300 299 300 300 299 298 297 296 295 294 294 294 292 289 288 288 288 288 288 287 287 286 286 285 285 285 285 285 285 285 285 284 284 284 285 284 284 284 283 282 282 281 282 282 281 281 281 281 282 283 284 283 283 283 281 281 282 281 281 281 281 281 281 280 280 280 279 280 280 279 279 279 279 278 278 278 280 279 278 279 279 279 280
299 298 298 298 299 299 299 297 296 294 294 293 293 294 292 289 288 287 286 287 286 286 285 285 285 285 285 284 284 285 284 285 285 286 287 284 284 285 284 283 282 282 281 280 280 280 280 280 281 282 283 282 283 284 284 284 284 283 283 282 282 281 281 280 281 281 280 280 280 280 279 279 280 280 280 280 281 281 280 279 278 279 279 279 279
298 298 297 298 298 298 298 296 294 293 293 293 293 293 290 287 287 286 286 286 285 285 284 284 283 283 283 283 283 284 284 284 286 288 288 288 285 284 283 283 283 282 281 281 279 279 279 279 280 282 282 282 281 283 283 283 283 283 284 284 284 283 281 280 280 280 280 280 280 280 280 279 280 281 281 281 281 280 279 279 279 279 278 277 276
297 297 297 297 297 297 296 294 293 292 292 292 292 290 288 287 286 285 285 285 285 285 284 283 283 283 284 283 283 283 283 285 288 288 289 289 287 284 284 283 283 282 281 281 280 279 279 278 279 280 279 279 280 281 282 283 284 284 284 284 284 285 285 282 281 280 280 279 279 279 280 279 280 281 281 281 280 280 280 279 279 278 277 277 277
296 296 296 296 296 296 295 293 292 291 291 289 289 288 287 286 286 285 284 285 284 284 283 283 283 283 283 283 282 282 282 285 288 289 289 289 288 286 284 284 283 282 281 281 280 279 279 278 278 279 280 282 281 281 281 281 283 283 284 284 284 285 285 285 285 282 281 279 279 279 279 279 279 280 281 280 281 279 279 279 279 279 278 277 277
295 295 295 295 295 295 294 290 290 290 289 288 288 287 286 285 285 285 285 284 284 283 284 283 283 282 282 282 282 282 282 285 287 288 289 289 289 287 284 283 283 282 281 281 280 279 279 279 278 278 279 280 281 281 281 281 281 281 282 282 282 283 284 285 285 285 284 281 279 278 280 280 279 280 281 281 279 279 279 278 279 278 278 278 279
293 294 293 294 294 293 291 290 289 289 288 287 286 286 285 285 285 285 284 284 283 283 283 283 283 283 283 283 283 282 281 286 287 288 289 288 288 286 284 284 283 282 281 280 280 279 279 279 279 279 279 279 280 280 280 280 280 280 281 281 282 282 283 283 283 283 282 282 281 280 280 280 280 280 280 281 281 281 280 278 278 278 279 280 279
292 293 292 293 292 292 290 289 288 288 287 286 286 285 285 285 285 284 284 284 284 284 284 283 283 283 283 283 282 282 283 286 287 287 288 288 287 284 283 283 282 281 280 279 279 279 279 280 280 281 281 281 282 283 282 281 280 280 279 280 280 281 281 283 284 285 284 283 282 282 282 282 283 282 283 283 282 282 282 281 280 279 277 276 275
291 291 291 291 291 291 290 289 288 287 286 285 285 285 284 284 284 285 283 283 283 283 283 283 283 283 283 283 282 282 283 286 287 287 287 287 285 283 283 282 282 280 279 279 279 279 279 280 281 281 281 280 282 284 284 283 281 280 279 279 279 279 279 281 283 284 284 285 285 286 286 286 287 287 287 287 285 284 282 280 278 278 275 273 274
291 291 290 291 290 290 289 288 287 286 286 285 285 285 285 285 284 284 284 283 282 282 283 283 283 283 283 283 283 282 282 285 287 288 287 286 285 283 282 282 281 281 280 279 279 279 280 281 281 280 280 280 283 284 285 284 281 280 280 279 278 278 279 279 280 280 283 283 284 284 284 284 284 284 284 284 284 283 279 276 278 278 276 275 273
290 290 290 290 290 289 288 288 287 286 285 285 285 284 284 284 284 284 284 284 283 283 283 283 283 283 283 283 283 282 283 285 287 288 287 287 284 283 283 282 280 280 280 280 280 280 280 281 282 281 281 281 283 284 285 284 281 280 280 279 278 278 279 280 279 279 279 278 279 279 280 281 281 280 280 282 283 282 280 279 279 277 275 275 275
290 290 290 289 289 288 287 286 286 285 285 285 285 285 285 284 284 284 283 283 283 282 282 282 281 282 282 282 282 282 282 284 286 287 287 286 285 284 284 282 281 281 281 282 281 281 281 281 282 283 284 284 284 285 285 285 282 280 280 279 278 277 280 279 280 280 279 279 279 280 280 280 280 279 279 279 279 280 280 279 279 278 276 275 275
289 289 289 288 287 287 287 286 285 285 285 285 285 285 284 284 283 283 282 282 282 281 281 281 281 281 281 281 281 281 282 284 285 287 288 287 286 285 284 284 284 284 283 284 284 283 283 283 283 284 285 286 286 286 285 285 284 282 281 279 279 281 282 281 281 282 281 281 280 280 280 280 279 279 279 278 278 278 278 279 279 278 277 275 274
288 288 286 286 286 286 285 285 285 285 285 285 284 283 284 284 283 283 282 281 281 280 280 280 280 280 280 281 280 280 282 284 285 287 288 287 287 286 285 285 285 285 284 284 284 284 284 284 284 284 285 286 285 285 285 284 284 283 283 284 284 284 283 283 283 282 282 281 281 280 280 279 279 278 277 277 277 277 278 277 278 278 277 277 275
286 286 286 285 285 285 285 284 284 284 284 284 283 282 283 283 283 282 281 281 281 280 280 280 280 279 279 279 280 280 281 283 285 285 287 287 287 287 286 285 286 285 284 283 284 283 284 283 283 284 284 283 283 283 283 283 283 282 283 283 283 283 282 281 281 280 280 280 280 279 279 279 278 277 277 277 277 278 277 277 277 277 277 277 277
285 285 284 284 284 284 284 284 284 284 284 283 282 281 282 282 282 282 281 281 280 279 279 280 279 278 278 278 278 278 279 280 282 284 285 287 287 287 287 286 286 284 284 283 283 283 282 282 282 282 282 282 282 282 282 281 281 282 282 282 281 281 280 279 279 279 279 278 277 277 277 278 278 278 277 276 275 275 275 275 275 276 275 274 274
284 283 283 283 283 283 283 283 283 283 283 283 282 282 282 282 281 282 281 281 280 279 279 279 278 278 278 277 278 278 279 279 280 282 283 284 286 286 287 287 286 286 284 284 284 282 282 282 282 281 281 281 280 280 280 280 280 280 279 279 278 277 276 276 276 276 276 275 276 276 276 277 276 276 275 275 275 275 275 274 274 273 270 269 269
282 282 282 282 282 283 282 282 283 283 283 284 283 282 281 281 281 281 281 280 280 279 279 279 279 278 278 278 278 277 277 277 277 279 281 281 282 284 285 285 285 284 283 281 281 281 281 280 280 279 279 279 278 276 277 276 278 277 277 277 274 275 275 276 275 275 274 274 274 274 275 275 275 275 275 274 273 272 272 271 270 270 269 269 269
282 282 282 282 282 282 282 282 282 283 283 283 283 282 282 282 281 281 281 280 280 279 279 279 279 279 279 279 278 277 277 277 277 277 279 279 280 280 281 281 281 281 280 280 279 277 278 278 278 278 277 278 277 277 276 277 275 275 276 276 275 275 275 275 274 274 273 273 273 273 273 274 274 273 272 272 272 272 273 271 270 269 269 269 268
282 282 282 282 282 283 282 280 282 282 282 282 282 281 282 282 281 281 281 280 280 279 279 279 280 280 280 280 279 278 277 277 277 277 277 278 278 279 278 278 278 278 278 276 276 276 275 277 277 275 275 274 275 274 275 274 275 275 275 274 274 275 275 276 275 274 273 273 273 272 272 271 270 270 271 271 270 271 272 270 270 269 269 268 266
281 281 282 282 282 282 282 282 283 282 282 281 281 282 282 282 282 280 281 283 283 282 281 281 281 282 281 279 278 278 277 276 276 278 277 278 277 275 275 275 276 276 277 277 274 274 275 275 275 275 275 275 275 275 275 275 275 274 272 272 272 273 273 272 271 271 271 271 270 270 269 269 269 269 269 268 269 269 270 269 269 268 267 267 265
281 281 281 281 281 281 281 281 281 280 280 278 278 278 279 282 282 281 279 280 281 283 283 281 281 281 279 279 279 278 277 278 280 280 279 279 279 278 278 278 278 277 278 279 277 275 275 275 275 275 275 275 274 274 274 273 273 272 272 273 271 270 271 271 270 269 268 267 267 267 267 267 266 267 267 266 267 267 268 268 266 266 265 265 264
280 280 280 280 280 281 280 280 280 280 280 279 278 277 278 279 281 281 281 280 281 281 281 282 282 281 278 276 279 281 281 281 280 280 279 279 279 279 279 279 280 280 280 278 277 276 275 275 275 275 275 274 273 273 272 271 271 270 270 269 269 269 269 268 266 265 264 264 265 265 265 264 264 264 264 264 264 264 265 265 265 265 264 264 263
280 280 280 280 280 280 280 279 279 279 279 279 278 278 277 277 277 280 281 280 281 281 280 280 281 281 280 279 278 278 280 280 280 280 279 280 279 280 280 280 280 280 280 280 276 276 276 275 274 274 273 272 272 271 271 270 269 268 267 267 267 267 265 263 263 261 262 263 263 263 263 263 263 263 263 263 263 263 263 263 263 263 263 263 263
280 280 279 279 279 278 278 278 278 278 278 278 278 278 277 277 276 276 278 281 281 280 280 280 281 281 281 280 280 279 279 280 280 280 280 280 280 280 280 280 280 280 280 278 276 275 275 274 273 273 272 271 271 270 269 268 267 265 265 264 264 264 263 261 261 261 262 262 262 262 262 262 263 262 262 262 262 261 262 261 262 262 262 261 261
280 279 278 278 278 277 277 278 278 277 277 278 278 278 277 277 277 276 275 276 277 279 280 280 280 280 280 280 280 280 280 280 280 280 280 280 280 280 279 277 279 279 278 275 274 273 273 271 271 270 269 269 268 267 266 265 264 263 263 263 262 262 261 261 261 261 261 261 261 261 261 261 261 261 260 261 261 261 260 261 261 261 260 260 260
277 274 273 274 277 277 277 277 276 276 277 277 277 277 277 277 277 276 276 275 275 275 275 277 279 280 279 280 280 281 280 280 280 280 280 279 279 278 278 275 273 272 271 270 270 270 270 269 268 267 265 265 265 265 264 261 262 262 261 261 261 261 261 261 261 261 260 260 259 259 260 259 258 260 259 258 258 258 259 260 260 261 260 259 259
275 275 275 275 276 277 277 276 277 276 276 277 277 276 276 276 276 276 276 274 273 272 271 272 275 279 280 279 279 279 278 278 277 277 277 277 277 277 272 271 270 269 268 267 267 266 266 266 265 264 263 262 262 261 261 260 260 260 260 259 260 260 259 259 260 260 259 259 259 259 259 258 258 258 257 257 256 258 258 259 260 260 260 259 259
275 274 275 276 276 276 276 276 276 276 276 274 274 275 275 275 275 275 274 273 272 271 270 271 272 272 273 273 275 276 276 275 275 274 274 274 275 272 270 270 269 267 266 265 264 264 263 263 262 262 261 261 260 260 260 259 259 257 260 259 258 258 258 258 259 259 257 257 257 257 256 256 256 256 256 256 257 257 258 259 259 259 260 260 260
275 275 275 274 274 274 274 273 272 272 273 273 274 274 273 273 273 273 272 271 270 270 270 271 272 271 270 269 271 271 271 272 271 270 269 269 266 266 266 266 265 265 264 263 262 262 262 261 260 260 260 260 258 259 259 258 258 258 258 257 258 257 260 259 260 258 256 256 256 256 257 257 256 256 257 256 256 256 257 258 257 257 258 258 258
271 271 272 273 274 273 272 271 271 272 271 272 272 271 271 271 271 271 271 270 270 270 270 271 271 270 268 268 268 269 269 267 266 263 262 262 262 263 263 264 263 263 262 261 260 260 260 260 259 259 259 258 258 258 258 258 258 257 257 257 257 257 257 257 256 256 256 256 256 256 256 256 256 256 257 256 255 256 256 256 256 257 256 256 257
269 270 271 272 272 271 270 270 271 271 270 271 271 270 270 270 270 270 270 270 269 269 269 269 269 269 268 267 267 268 266 265 264 262 261 261 261 260 261 261 262 261 260 260 260 259 259 259 259 258 258 257 257 257 258 257 257 257 256 257 256 256 256 256 256 256 255 256 256 256 256 255 255 256 255 256 255 255 255 256 256 256 256 256 257
270 269 268 271 270 270 269 270 270 270 270 270 270 269 269 269 268 268 268 268 268 268 268 268 268 266 266 267 269 269 266 264 262 261 261 260 260 259 260 260 260 259 260 259 259 259 259 258 258 258 257 257 257 256 256 256 256 256 256 256 256 256 256 255 255 255 255 254 254 254 255 255 255 255 254 255 259 257 256 256 256 256 256 256 256
269 269 269 268 269 269 269 269 269 266 269 268 270 270 269 268 268 267 267 267 266 266 266 266 264 263 265 269 270 270 265 263 262 261 260 259 259 259 259 259 259 259 259 259 258 258 258 257 257 257 257 256 256 256 256 255 255 255 256 256 255 255 255 255 255 254 254 254 254 254 253 255 255 256 257 259 256 255 255 255 254 255 254 255 255
267 267 267 267 269 268 267 266 266 267 267 267 266 265 265 266 266 266 266 265 265 265 265 263 262 262 264 269 269 269 262 261 260 259 259 259 259 259 258 258 258 257 257 257 258 257 257 257 256 257 257 256 256 256 256 256 256 256 256 255 255 255 254 254 254 254 254 253 254 254 253 253 255 254 255 255 254 255 254 253 254 254 254 254 254
266 266 266 265 265 265 265 266 266 265 264 263 263 263 263 264 264 264 264 263 264 263 263 262 262 262 263 265 265 262 261 259 259 259 258 258 258 258 258 258 258 257 256 256 256 256 255 255 255 256 255 255 255 253 255 255 255 255 255 255 255 255 254 254 254 254 254 254 254 254 253 253 255 254 255 255 253 253 254 253 253 253 253 253 253
266 265 265 265 265 264 264 263 263 261 261 261 262 262 262 263 263 263 262 262 262 262 262 262 262 262 261 262 262 261 259 259 258 258 258 258 257 257 258 257 256 255 256 255 255 254 253 254 254 253 253 254 254 253 253 254 254 254 255 255 254 255 255 254 254 254 254 252 253 253 253 254 253 254 254 254 254 253 254 253 253 255 253 253 252
265 265 264 264 263 262 262 262 261 262 262 262 262 262 262 262 262 261 262 261 261 261 261 261 261 260 260 261 260 259 259 257 257 258 257 257 257 257 257 256 256 255 255 255 255 253 254 254 253 254 254 253 254 254 254 253 254 254 254 254 255 255 254 254 253 253 252 251 252 252 253 253 253 254 255 253 253 254 252 252 252 253 252 252 252
265 264 264 263 263 261 261 261 262 262 262 262 262 261 261 261 261 260 260 260 260 260 260 259 259 259 259 258 258 257 257 257 257 257 256 256 256 256 256 255 255 254 254 254 253 253 252 253 253 253 253 253 253 253 253 254 254 254 254 254 254 254 254 254 254 252 252 252 252 251 252 253 253 253 254 254 253 253 253 253 252 251 251 252 252
264 263 262 261 261 261 261 261 260 260 261 261 260 260 260 260 260 260 259 258 258 259 259 258 258 259 258 258 257 257 257 257 257 257 257 256 255 255 254 253 253 254 254 253 253 253 253 253 252 252 252 252 252 253 253 253 253 254 254 254 254 254 254 254 253 253 252 252 252 251 251 252 252 252 252 252 251 252 252 252 252 252 252 252 252
262 262 262 262 261 261 261 260 260 261 260 259 259 259 259 259 259 259 259 259 258 258 259 258 258 258 257 258 257 257 257 256 256 256 256 256 255 255 254 253 252 253 253 253 254 253 253 253 252 252 252 252 252 252 252 252 253 253 253 254 254 255 255 254 253 252 254 253 252 252 251 251 251 251 252 252 252 251 252 251 251 252 251 251 251
261 261 261 261 260 260 260 260 260 260 259 260 259 259 258 258 258 258 258 258 258 258 258 258 258 258 258 257 256 256 256 256 256 256 256 256 256 255 254 253 252 252 252 252 253 254 253 253 252 252 252 252 252 252 252 252 253 253 253 253 255 256 255 255 254 254 253 252 252 252 252 251 251 251 251 251 251 251 251 251 251 252 251 250 250
259 259 259 259 259 259 259 259 259 259 259 259 259 259 258 258 258 258 258 257 257 258 257 257 257 257 257 257 257 257 257 256 257 257 257 257 256 255 254 253 253 252 252 252 253 253 253 253 253 253 252 252 252 252 252 252 252 253 254 255 255 255 255 255 254 254 254 253 252 252 252 252 251 251 251 251 251 250 251 251 251 251 250 250 251
Wind_Speed
11 10 9 10 10 11 10 10 9 8 8 7 8 9 8 8 7 6 6 5 6 8 8 9 9 9 9 10 9 9 9 9 8 7 8 8 7 7 8 9 9 7 8 8 6 7 8 8 7 6 6 6 5 5 5 4 4 3 3 3 2 2 1 0 1 2 0 2 2 2 3 3 2 4 4 4 3 5 6 5 6 6 6 6 6
12 11 10 9 10 10 9 7 8 8 10 8 8 7 7 8 7 5 7 5 7 7 8 8 8 10 10 10 10 10 9 9 9 8 9 8 8 6 8 9 9 9 9 10 8 6 8 9 8 7 6 7 6 6 5 5 4 4 2 2 2 2 0 0 2 1 2 2 1 2 3 3 2 3 5 4 4 3 5 6 5 6 6 6 6
11 11 11 11 11 10 9 8 8 9 11 9 9 8 7 5 7 6 7 6 6 7 8 8 9 9 9 9 10 10 10 9 8 7 8 9 9 9 9 10 10 11 11 10 10 9 9 9 9 8 6 8 6 6 5 5 4 4 4 2 1 2 1 0 0 2 3 3 1 2 3 4 5 3 3 4 3 3 5 6 6 5 5 6 6
10 10 10 10 10 10 11 9 10 10 11 10 10 9 8 6 5 7 7 6 7 6 7 7 7 9 8 9 9 9 10 9 9 8 9 9 9 11 10 10 10 11 11 11 10 10 11 11 9 9 8 8 7 6 5 5 5 4 4 2 1 1 0 1 1 2 2 3 3 2 3 3 4 3 3 3 4 5 6 6 5 6 6 6 7
9 9 9 11 11 11 12 11 10 11 10 8 11 9 8 7 7 9 8 7 7 7 7 6 7 8 8 9 10 10 10 10 10 9 8 8 9 10 10 10 10 11 11 11 11 11 11 11 11 10 9 9 7 7 6 6 5 5 4 3 1 1 1 1 2 2 2 5 5 4 3 3 3 3 3 4 5 6 5 7 6 6 7 7 6
9 9 10 11 11 13 12 11 11 10 10 9 10 10 9 9 9 8 9 8 8 8 8 7 7 10 9 9 9 9 9 9 10 10 9 8 8 9 9 10 10 10 10 10 11 10 11 11 11 10 10 10 9 8 7 7 6 5 4 3 2 2 2 2 2 3 4 5 5 6 5 4 4 4 5 6 5 5 6 6 5 6 6 7 7
9 10 11 11 11 12 12 11 10 11 10 10 10 9 10 9 10 9 8 9 9 7 6 7 8 9 9 9 10 9 9 9 9 9 9 9 9 10 10 10 10 10 10 10 9 9 10 11 11 10 10 9 11 10 8 7 5 5 4 4 3 3 3 3 3 4 5 6 6 6 6 4 4 6 5 4 5 5 6 7 8 6 6 7 7
10 10 10 11 11 11 11 10 9 10 9 10 11 10 9 9 10 9 8 8 6 6 7 8 8 8 9 9 8 8 8 8 8 8 9 10 10 10 11 11 10 9 9 8 8 9 9 10 10 9 9 9 9 8 9 7 5 5 4 4 4 3 4 4 5 5 5 6 7 6 6 5 4 5 4 3 4 7 7 7 9 8 7 7 7
10 10 11 11 11 9 8 8 8 10 10 10 11 11 9 9 9 8 8 8 6 7 7 7 8 8 7 7 7 7 8 8 8 8 9 10 9 10 11 11 11 10 9 8 7 7 8 7 7 7 9 9 8 9 8 7 6 5 4 5 4 5 4 4 4 4 4 5 7 7 7 7 6 6 6 6 8 10 5 5 7 8 7 7 7
10 10 10 10 8 8 8 8 8 8 11 10 11 11 9 9 9 8 9 8 7 7 7 7 7 7 7 7 7 6 6 5 8 13 12 10 10 8 8 10 11 11 10 9 7 7 7 6 7 11 12 10 9 11 10 8 5 3 3 5 5 5 5 5 5 5 5 7 9 8 8 9 8 7 9 9 7 6 7 7 9 9 7 9 9
9 9 10 8 8 8 8 8 8 9 10 10 10 10 9 9 9 9 8 8 8 7 7 7 7 6 7 7 7 6 6 6 11 13 15 13 11 11 12 11 10 10 10 10 8 8 6 7 7 8 8 7 7 10 8 7 6 7 8 7 6 6 5 6 6 6 7 9 9 7 9 11 11 9 9 10 7 8 8 8 9 8 8 9 11
9 9 8 8 8 9 8 8 9 9 9 10 10 6 7 7 7 6 6 6 7 7 7 8 7 7 6 6 7 7 6 9 8 12 15 16 12 9 9 8 9 9 10 10 9 8 8 6 6 5 6 7 6 6 5 7 8 10 11 12 13 14 11 8 7 8 9 9 10 10 10 11 13 11 9 9 9 8 8 8 9 8 9 9 10
8 8 8 8 9 9 8 9 9 9 9 9 7 7 7 7 7 7 7 6 6 7 7 8 8 7 7 8 8 6 6 10 10 11 11 12 12 11 7 10 9 8 9 9 10 9 9 8 7 5 5 8 7 5 5 4 7 11 12 13 13 14 15 18 17 12 9 9 10 12 13 11 13 13 9 7 5 9 9 9 8 8 8 9 9
8 8 8 8 8 8 8 7 8 9 8 7 7 8 8 8 6 5 6 6 7 7 5 7 6 7 8 7 7 6 6 10 12 11 10 9 12 9 8 9 7 9 10 10 9 8 8 10 9 7 5 6 5 5 4 4 4 4 6 7 7 10 14 18 19 21 16 11 12 14 15 10 12 12 9 7 10 10 9 9 8 8 9 11 11
7 7 8 8 8 8 8 9 9 7 8 8 8 9 10 7 8 6 7 7 8 9 9 8 6 5 5 5 5 5 5 11 13 12 10 11 11 9 6 6 5 6 7 9 10 10 10 9 9 9 8 7 6 6 5 5 4 4 6 7 9 9 8 9 10 10 10 10 13 15 15 11 10 9 8 7 8 7 5 5 7 9 10 11 12
7 7 7 7 8 7 8 6 6 7 9 8 9 9 9 9 8 7 6 5 3 3 2 4 5 6 5 6 5 5 4 14 12 14 14 14 11 5 5 6 6 6 7 8 8 8 8 8 7 7 7 6 8 11 7 4 4 7 8 9 8 9 10 10 11 9 8 9 9 10 10 10 11 11 11 9 7 7 8 9 9 8 8 9 11
6 6 6 6 7 6 6 8 5 6 8 8 8 8 8 8 6 4 7 5 5 6 5 5 5 5 6 6 6 5 4 11 14 15 15 15 9 4 5 5 7 7 7 8 7 7 7 7 7 6 6 6 8 10 10 9 6 7 8 10 9 9 10 6 11 16 18 19 20 21 22 23 24 24 24 25 17 13 10 10 11 6 6 8 10
6 6 6 6 6 6 6 7 6 6 8 9 8 7 7 5 5 6 6 7 6 6 5 5 4 5 6 6 6 6 5 9 14 16 16 16 9 7 6 7 7 8 6 5 5 5 6 7 6 6 6 6 8 10 10 9 7 7 8 9 11 11 8 3 5 7 13 17 20 21 21 21 21 23 23 21 20 14 8 10 10 8 11 10 10
7 7 7 6 6 6 6 6 7 7 8 8 8 8 7 6 5 6 5 5 6 5 5 5 5 5 5 5 7 7 6 10 15 17 18 17 11 7 7 7 8 6 6 6 4 4 5 6 8 7 6 6 9 10 12 10 7 7 7 8 10 11 7 5 7 7 5 4 7 8 9 12 12 11 11 18 18 15 10 11 9 9 10 10 9
6 6 6 6 6 6 5 7 7 8 8 7 6 7 6 5 7 6 6 4 4 4 4 4 6 3 4 4 5 5 6 6 10 16 16 16 13 8 6 7 7 7 6 6 6 4 4 4 7 10 10 10 11 11 12 13 9 6 5 6 8 10 5 5 6 6 8 7 8 9 10 9 9 8 8 8 8 8 9 8 7 7 8 8 8
6 6 6 6 4 4 5 6 8 6 7 8 7 6 5 7 7 8 7 6 6 5 6 5 5 5 4 4 4 4 6 7 9 14 15 15 13 10 6 6 6 6 6 6 5 5 4 4 4 9 12 12 11 12 12 12 11 6 4 5 6 8 10 8 9 9 8 8 9 8 8 7 7 6 5 6 5 5 6 8 7 6 7 7 8
6 6 4 4 4 5 5 5 6 6 7 8 7 6 5 7 7 7 5 6 8 7 6 5 4 4 3 4 4 4 4 8 8 13 15 15 14 11 6 5 6 7 6 5 4 3 4 3 4 8 12 10 9 8 8 8 10 6 6 11 15 17 11 8 8 7 7 6 6 6 5 5 3 3 4 5 5 7 6 5 5 5 5 5 5
6 5 5 6 6 7 6 7 6 5 6 6 8 7 7 6 7 6 7 7 7 7 6 5 5 4 4 3 3 3 3 4 9 9 14 15 15 10 9 7 9 5 4 4 4 3 2 2 2 7 6 4 2 2 4 7 7 6 11 12 12 13 10 5 5 6 6 7 7 7 6 4 3 3 4 5 3 2 2 3 3 4 4 5 6
5 7 7 8 8 7 7 7 7 6 7 7 7 8 7 7 7 5 6 7 6 6 4 4 4 5 4 4 4 4 3 4 5 6 7 10 10 10 9 9 8 4 3 2 2 2 2 1 4 10 7 6 3 2 1 1 0 4 6 8 10 9 6 6 5 5 6 7 7 7 6 6 5 5 4 5 5 5 5 6 6 5 5 5 5
8 8 8 7 7 6 6 6 6 6 6 7 7 6 7 8 6 5 6 6 6 6 6 5 5 5 5 5 4 4 3 3 3 4 5 4 8 9 9 8 7 7 3 2 2 5 11 14 13 11 10 8 6 3 2 2 6 6 7 8 7 3 3 4 4 4 6 7 6 6 5 5 5 4 4 6 6 6 4 3 3 2 3 4 4
9 9 7 7 7 7 8 7 6 7 6 5 6 6 7 6 6 6 5 5 5 5 6 6 6 5 5 5 5 4 3 3 3 3 4 3 3 6 6 6 3 3 8 9 13 13 11 11 11 8 6 4 1 0 0 1 3 3 3 3 1 2 3 3 3 3 4 6 7 7 6 5 5 6 6 5 5 6 5 6 6 5 4 4 6
10 8 8 7 7 7 7 6 6 6 5 6 6 6 5 5 5 5 5 5 5 5 5 6 6 5 5 5 5 4 4 3 3 3 3 3 3 3 3 4 10 10 7 5 7 7 6 5 4 6 4 5 5 4 3 2 1 0 1 2 2 1 1 2 2 4 5 5 6 5 6 6 6 7 7 7 7 7 6 6 6 6 6 6 7
8 8 9 8 6 6 6 8 8 6 5 5 6 5 4 4 5 5 5 5 6 6 6 6 6 6 6 6 5 5 4 4 4 4 5 4 4 4 3 4 3 3 4 4 4 5 6 6 6 4 3 2 3 2 2 2 1 1 1 2 2 3 4 5 5 3 3 4 5 6 6 6 6 7 7 7 7 7 7 6 8 8 6 6 7
10 10 8 7 7 6 7 6 6 6 6 6 6 4 3 4 4 4 5 2 2 4 5 4 3 4 4 5 5 5 4 4 3 5 6 7 6 5 4 4 3 3 7 10 7 3 4 3 3 3 3 2 2 1 1 0 1 1 2 1 1 2 2 2 2 3 3 4 5 6 6 7 7 7 7 7 7 6 6 7 8 8 7 6 7
9 8 7 7 7 7 6 6 6 7 7 6 5 7 13 13 7 4 3 7 11 11 6 2 3 4 5 3 2 3 3 4 11 14 13 12 11 11 9 10 9 7 11 13 7 4 3 3 2 2 1 1 1 0 0 0 0 1 1 2 2 2 2 2 2 2 3 3 4 4 5 5 5 6 6 7 7 6 7 9 7 8 7 7 7
7 7 7 7 7 7 6 7 6 6 6 6 5 7 7 10 15 14 11 10 10 11 11 12 11 10 8 5 7 14 14 15 15 14 14 13 12 13 13 12 12 12 12 7 4 4 3 2 2 2 2 1 2 2 1 1 0 0 0 1 1 1 1 1 2 4 4 3 3 3 3 3 4 4 5 6 7 7 5 5 6 6 7 8 8
7 7 7 7 8 7 6 6 7 7 6 5 6 6 7 9 9 13 13 13 14 14 13 14 14 14 14 12 9 8 12 15 16 15 15 15 14 13 13 12 11 11 10 8 4 3 3 3 2 3 3 3 3 2 1 1 0 0 0 0 1 1 1 2 3 2 2 2 2 4 3 3 3 4 4 5 7 6 6 5 6 6 6 6 7
8 7 7 8 6 8 7 6 6 5 7 8 6 5 7 7 9 9 10 14 16 15 15 15 16 15 14 13 13 12 12 14 16 16 15 14 13 11 11 10 10 9 9 5 4 4 3 3 3 3 3 3 2 2 1 1 1 0 0 0 0 1 2 2 2 1 1 1 1 2 2 2 3 5 5 5 5 5 6 6 5 5 5 6 6
6 7 9 9 8 5 5 7 7 6 6 7 7 6 5 6 7 8 9 8 9 12 14 15 14 15 14 14 15 16 15 15 15 14 14 14 15 16 14 10 10 8 5 3 2 3 3 3 3 3 1 2 1 2 1 2 1 1 0 0 1 0 1 0 0 0 1 1 1 1 2 2 3 3 3 4 4 4 4 5 5 5 5 5 6
5 7 9 8 5 7 7 6 6 7 7 7 6 6 6 5 7 7 7 8 8 7 6 7 10 12 11 11 14 15 15 16 16 16 16 15 14 13 11 6 4 3 2 1 1 1 2 2 3 3 3 3 2 2 2 2 1 1 1 1 0 1 0 0 0 0 0 1 2 1 2 1 2 3 3 3 3 3 4 5 4 5 5 5 5
6 4 5 6 6 6 6 6 6 7 7 5 4 5 6 6 5 6 5 5 6 7 6 4 5 10 17 16 17 16 17 15 14 13 11 11 10 10 5 4 3 3 3 2 3 3 3 3 3 3 3 2 2 2 2 2 1 2 1 1 1 0 1 1 1 0 1 1 2 2 2 1 2 2 3 3 3 3 3 4 4 5 5 5 4
4 3 2 4 5 4 5 6 5 6 6 6 6 6 5 4 4 6 6 6 7 6 6 5 5 7 8 5 11 14 16 15 13 11 7 5 5 3 1 2 3 3 3 3 3 3 3 2 3 3 3 3 2 3 2 2 2 2 1 1 1 0 1 1 1 1 0 1 2 2 1 2 2 3 2 3 3 3 3 3 4 5 6 7 7
5 5 4 6 6 7 6 6 6 9 6 4 4 5 5 5 5 5 5 7 7 8 7 5 6 6 6 4 7 6 8 11 10 8 5 4 2 1 1 2 3 3 3 3 3 3 3 3 2 3 3 3 3 2 2 2 2 2 2 1 1 2 4 2 3 1 1 3 3 3 1 2 2 2 3 2 3 3 3 4 3 3 5 6 4
5 7 9 9 7 5 4 5 5 5 4 5 5 5 5 5 6 6 6 7 7 7 5 6 6 5 5 5 5 6 6 3 2 2 1 1 1 1 1 2 2 3 3 3 3 3 3 3 3 3 3 3 3 2 2 2 2 2 1 2 1 2 2 2 3 3 3 3 2 2 2 2 2 3 2 2 3 3 3 3 3 3 4 4 3
5 4 5 7 5 5 3 3 4 4 3 6 6 6 5 5 6 7 7 8 8 7 7 5 5 5 6 6 6 5 4 3 3 3 2 2 1 1 1 2 2 3 3 3 3 3 3 3 3 3 3 3 3 2 2 2 1 2 2 2 2 2 2 3 3 2 3 2 2 2 2 3 3 2 3 3 3 2 3 3 3 3 3 3 3
4 4 5 4 5 5 4 4 3 3 4 4 6 5 5 5 5 5 6 7 7 7 5 5 5 4 5 5 9 7 2 2 3 2 2 2 2 1 1 1 2 3 3 3 3 3 3 3 3 3 3 3 3 3 2 2 2 2 3 3 2 3 3 3 3 3 2 2 3 3 3 3 3 3 3 3 4 3 3 3 3 4 4 3 3
5 5 5 4 4 4 4 3 3 4 5 5 5 5 4 4 5 5 5 6 5 4 4 4 3 2 6 13 10 10 2 1 2 3 2 2 2 1 1 1 1 2 2 3 3 3 3 3 3 3 3 3 3 3 3 3 3 3 3 3 3 3 3 3 3 4 4 3 3 4 3 3 3 4 5 5 3 3 3 3 3 3 3 4 4
4 4 4 3 3 3 3 4 3 3 3 4 4 4 4 4 4 4 5 4 5 5 5 4 3 3 4 8 7 7 3 2 3 2 3 2 1 1 1 1 1 2 2 2 2 2 2 3 2 2 3 3 3 3 3 3 3 3 3 4 4 4 4 3 3 4 4 4 4 4 4 3 4 3 4 4 4 4 4 3 3 3 4 4 4
4 4 3 4 4 5 3 3 3 3 3 5 6 4 3 3 3 3 4 4 5 4 4 4 4 4 3 2 4 3 2 2 2 1 2 2 2 1 1 1 1 2 2 2 1 2 2 2 2 1 1 2 2 2 2 2 3 3 3 4 4 5 4 4 4 4 4 4 4 4 4 4 5 4 4 5 4 4 4 4 4 3 3 4 4
4 5 5 4 4 4 3 3 4 4 5 4 3 2 2 2 2 2 3 3 3 3 3 3 4 4 3 3 3 2 2 2 1 1 1 1 2 1 1 2 2 2 2 2 2 2 2 2 2 2 2 2 3 3 3 3 3 3 3 4 4 5 5 5 4 4 4 4 3 3 3 4 4 4 5 4 4 4 4 4 4 4 3 3 4
4 4 3 4 4 3 3 3 3 2 2 3 3 3 2 2 2 3 3 3 3 3 3 3 3 3 3 2 2 1 2 2 1 1 1 1 1 1 1 2 2 2 2 2 2 3 3 3 3 3 4 4 4 4 4 4 5 5 4 4 5 5 4 3 2 3 3 4 4 4 4 4 4 4 5 4 4 4 4 4 2 2 4 4 4
4 5 4 4 4 3 3 3 2 2 2 2 3 3 3 2 2 2 2 3 3 3 3 2 3 2 2 2 2 1 1 1 1 1 2 2 1 1 1 2 2 2 2 2 2 3 3 4 4 4 4 4 4 5 4 4 4 5 5 5 6 5 4 4 4 4 4 4 4 4 4 4 4 4 6 5 4 5 4 5 4 4 4 4 4
5 4 4 4 4 4 3 3 4 4 3 3 3 3 2 2 2 2 2 2 2 2 3 2 2 1 1 1 1 1 1 1 1 1 1 2 2 2 2 3 3 3 3 3 3 3 4 4 5 5 5 5 5 5 5 5 5 5 4 5 5 6 7 7 4 4 4 4 4 5 4 5 4 4 4 4 5 4 4 5 4 4 5 4 5
5 5 4 4 4 4 3 3 2 2 2 2 3 3 2 2 2 2 2 2 2 2 2 2 1 1 1 1 1 1 1 1 1 1 2 2 2 2 3 3 3 3 3 3 3 4 4 4 5 5 6 6 6 6 6 5 6 6 6 5 6 10 10 9 6 5 6 5 4 4 4 4 5 5 5 5 5 4 5 5 4 4 4 3 3
4 4 5 4 4 3 3 3 3 3 2 2 3 3 2 2 2 2 2 2 2 1 1 1 1 1 1 1 1 2 2 3 3 3 3 2 3 3 3 3 3 3 3 4 4 4 4 4 5 5 6 6 6 6 6 6 6 6 6 7 11 13 11 11 11 10 7 5 5 5 5 5 5 5 6 6 5 6 6 6 5 6 4 4 4
4 5 5 5 4 3 3 3 2 3 2 2 2 2 2 2 2 2 2 1 1 1 1 1 1 1 1 1 1 2 2 3 2 2 2 2 2 2 3 3 3 3 4 4 4 4 4 4 5 5 6 6 7 6 6 6 6 6 9 12 13 13 12 11 8 10 12 9 5 6 6 7 6 7 6 6 5 6 8 6 6 5 4 4 4
Wind_Direction
197 201 200 208 208 209 216 214 205 201 190 188 189 199 200 194 194 182 149 161 151 167 176 180 181 182 178 183 183 180 179 178 177 177 186 183 181 171 161 165 159 152 141 139 142 143 139 128 121 118 122 116 114 109 97 90 81 78 79 95 99 86 78 302 271 289 56 75 99 145 153 145 201 195 219 231 198 200 219 237 239 241 245 250 258
196 192 198 206 211 214 215 215 203 186 203 202 202 198 197 199 192 160 164 155 169 176 185 181 179 181 183 183 182 183 182 182 177 177 188 180 176 164 165 165 160 150 148 151 151 144 134 127 122 120 115 111 113 107 110 112 106 107 104 95 90 111 75 100 287 264 271 153 176 132 141 179 210 219 199 228 244 224 209 217 227 229 242 251 255
197 194 195 200 204 206 209 199 187 195 198 203 201 202 201 171 167 168 173 171 173 188 186 184 179 179 184 187 183 183 183 180 180 180 189 182 172 166 168 168 163 157 157 157 151 143 133 130 127 120 112 109 107 108 113 114 111 114 103 83 80 92 91 357 248 272 281 280 103 157 185 189 203 229 218 211 232 238 251 252 247 244 236 241 250
198 196 197 200 201 205 207 200 190 192 204 206 212 205 195 166 165 182 185 170 181 191 189 176 172 184 187 189 186 184 181 180 180 187 191 186 177 171 170 169 165 163 161 155 151 147 140 130 132 130 126 124 125 123 120 119 121 112 103 86 72 70 99 149 271 255 289 276 275 226 231 204 227 210 208 228 228 240 242 248 241 241 241 239 242
196 196 196 199 203 207 208 202 189 189 193 195 206 203 197 186 179 188 183 181 187 182 188 168 174 183 191 192 187 187 187 180 179 184 191 187 180 173 171 167 165 163 158 155 152 148 145 141 142 139 139 133 137 135 135 129 118 104 104 100 127 183 151 222 226 245 243 257 268 255 216 218 218 224 220 228 246 246 237 242 242 240 244 238 237
195 190 193 198 204 206 206 200 192 186 185 181 189 194 196 197 189 190 188 189 189 191 182 175 177 188 195 197 193 189 188 187 184 184 186 182 175 175 169 164 161 156 154 154 153 151 145 142 143 148 150 153 146 133 134 132 116 113 121 146 167 188 209 221 220 225 241 250 258 266 253 224 234 231 202 218 239 255 263 255 249 242 243 250 240
196 196 196 200 202 204 203 201 194 192 186 186 187 190 196 192 191 187 182 190 189 175 165 171 185 191 197 198 197 188 188 194 190 184 181 179 176 171 163 158 156 153 154 151 147 141 143 146 151 154 157 144 134 144 142 131 128 136 157 169 181 189 218 227 226 230 237 249 254 256 259 248 234 250 241 207 216 238 256 278 274 250 235 246 259
195 200 198 201 205 204 202 200 194 189 186 184 188 195 193 182 179 181 178 184 174 172 173 179 187 194 198 197 196 187 189 195 196 187 178 175 175 173 164 156 149 141 141 144 145 145 143 143 147 153 142 138 146 148 137 135 137 151 168 166 182 194 218 233 235 236 241 248 253 259 258 255 236 251 234 205 241 250 236 234 258 270 260 252 247
196 199 201 205 207 201 198 197 194 189 185 182 187 192 187 182 179 179 183 188 181 185 183 186 186 196 202 197 191 188 194 197 196 187 178 176 176 168 160 152 149 144 142 138 131 122 118 118 116 122 123 118 125 123 121 129 144 165 185 173 193 202 221 230 237 239 250 254 260 261 262 253 248 249 249 231 229 253 246 211 245 257 262 266 262
193 199 205 207 202 196 194 187 186 176 181 190 190 191 185 179 177 180 182 182 178 175 174 177 187 190 190 193 194 190 198 199 201 192 182 172 168 162 151 154 154 149 142 132 116 112 110 111 122 128 129 129 125 116 121 127 149 170 178 183 199 213 221 228 238 241 247 254 256 261 263 263 255 247 256 253 252 256 261 255 261 265 270 267 269
193 198 205 199 194 196 197 184 176 182 185 185 190 191 172 165 175 179 179 177 166 162 168 177 186 186 188 189 192 196 200 202 200 192 188 176 166 165 162 155 148 144 144 139 133 130 116 115 122 122 121 131 131 128 137 155 191 218 235 241 235 217 225 237 241 236 246 257 263 260 263 268 263 259 258 268 260 259 262 266 269 271 267 278 283
193 200 198 190 191 194 194 179 180 182 178 185 188 182 167 171 179 175 173 173 170 153 168 183 183 188 191 194 202 202 207 205 183 184 184 182 173 157 152 149 152 152 149 145 141 135 133 129 123 128 148 155 138 133 152 189 211 223 231 237 239 244 243 235 243 251 248 254 262 262 262 261 272 267 268 270 274 278 274 269 264 264 270 272 276
192 198 198 189 193 192 191 184 181 177 175 168 173 170 168 167 172 168 174 175 163 173 170 179 183 185 190 194 201 198 208 187 171 174 171 165 161 162 159 153 149 151 150 148 143 137 137 133 129 138 148 134 122 131 142 186 220 230 240 244 246 243 244 245 242 241 249 258 265 267 257 262 269 271 267 274 291 287 288 279 275 272 273 277 278
190 192 193 191 188 187 185 173 176 171 164 165 165 168 168 174 162 156 163 158 169 173 168 180 176 182 188 192 192 193 201 182 170 162 158 157 162 156 152 151 150 148 147 145 140 137 142 145 145 153 156 142 138 143 166 183 206 223 232 234 235 239 241 242 243 244 244 247 254 260 263 255 262 276 294 309 299 290 289 283 287 286 285 280 289
188 190 191 190 185 182 176 169 170 164 164 161 161 167 170 151 165 163 167 170 174 179 181 182 182 176 173 177 188 189 190 164 163 158 145 152 154 151 147 143 131 126 127 139 147 149 149 151 157 156 158 163 160 163 160 185 199 229 249 253 252 253 250 243 239 241 241 242 245 253 267 272 272 284 292 288 279 283 289 286 278 275 276 278 276
185 186 189 189 187 181 169 168 162 150 152 153 160 164 161 161 136 153 159 157 139 118 129 159 168 169 170 174 182 187 166 164 160 157 166 158 146 131 138 134 127 123 123 125 132 139 149 154 153 151 155 160 171 181 183 175 220 240 251 257 258 257 256 248 252 252 245 241 245 253 264 270 274 277 276 276 272 268 269 268 271 274 279 274 269
184 183 182 183 180 174 155 157 158 142 152 154 162 163 161 159 149 127 149 148 146 165 170 168 168 167 164 170 176 177 151 166 160 161 157 149 138 126 129 128 129 134 137 141 137 141 148 159 152 146 155 159 173 191 207 206 226 238 250 259 261 262 266 262 250 254 257 261 266 270 273 276 279 281 283 285 287 292 298 291 279 278 258 261 267
179 177 180 176 169 169 161 161 155 149 152 160 161 160 157 144 136 150 147 159 164 162 154 149 152 165 167 173 177 172 158 162 161 157 149 150 150 148 147 140 139 132 130 126 125 143 157 155 145 149 157 166 170 200 214 216 232 237 247 260 267 268 276 262 252 247 249 252 258 263 267 271 275 276 278 277 276 275 262 264 269 271 268 266 274
175 173 173 168 165 160 147 151 151 152 158 161 159 154 156 149 140 144 148 134 143 137 148 147 149 157 168 168 167 165 156 165 165 161 157 159 150 147 144 142 142 141 135 139 141 143 157 168 168 167 163 169 192 207 218 217 231 234 244 257 268 275 285 292 288 286 282 272 263 259 261 260 259 258 257 260 259 256 248 252 262 260 265 270 274
165 163 160 157 152 142 144 150 151 153 155 149 147 144 134 121 134 132 136 130 121 134 141 126 150 120 144 148 156 156 151 160 169 166 159 153 150 149 148 142 146 145 147 149 155 165 162 172 186 198 201 207 215 220 226 227 228 239 243 255 269 278 296 289 287 287 286 280 276 271 270 266 261 256 253 251 252 250 256 258 262 267 274 281 283
148 148 143 138 130 131 135 146 143 140 142 140 136 131 130 134 135 141 142 140 139 134 144 129 130 112 115 122 138 145 153 151 162 166 156 153 148 144 151 153 144 140 142 146 163 164 166 177 177 194 211 220 225 230 236 244 251 254 243 248 252 272 288 282 284 274 272 273 273 272 272 266 257 255 257 257 259 259 255 255 253 252 262 272 281
134 128 124 115 111 110 110 110 118 122 123 127 127 116 116 124 135 136 124 132 142 140 138 137 131 132 132 134 141 145 155 155 156 165 157 152 155 148 145 140 135 139 142 151 155 161 165 163 185 189 203 217 227 238 252 262 268 268 270 277 285 289 292 294 296 299 292 287 280 274 268 271 272 252 253 255 251 248 251 254 252 257 262 276 286
112 106 103 105 108 107 109 112 111 112 119 124 123 117 121 121 128 133 134 134 131 138 144 139 126 123 114 94 71 95 120 140 154 161 163 160 159 145 125 121 136 135 144 145 142 143 155 132 116 137 161 176 190 232 268 277 280 276 281 287 296 308 319 324 319 307 301 299 303 304 306 306 292 279 268 267 276 281 294 302 305 300 294 281 278
94 99 95 99 104 104 109 111 111 116 121 118 118 125 131 129 130 128 135 138 132 129 129 122 117 109 109 98 88 69 74 86 67 90 131 140 150 152 150 146 151 133 128 113 105 111 128 146 97 100 94 92 93 84 72 63 279 297 302 304 315 316 304 300 297 299 305 303 300 299 299 301 302 307 353 4 351 349 322 304 288 280 285 286 290
101 96 99 100 97 100 101 103 108 111 114 122 122 118 120 131 128 126 132 130 135 133 134 131 131 135 130 137 133 126 112 88 94 100 109 142 171 178 183 177 162 147 123 138 101 77 88 93 95 97 102 106 114 135 180 252 284 301 323 334 342 316 304 300 310 318 307 305 308 317 328 340 339 340 337 320 321 315 310 309 303 279 259 275 268
106 108 105 100 105 107 103 98 101 108 109 111 111 121 130 135 129 135 131 127 128 129 138 141 141 141 142 141 137 126 108 106 105 105 140 103 153 182 177 185 186 124 85 91 96 98 92 93 100 107 118 122 134 131 347 34 24 360 341 360 11 360 0 345 328 324 314 313 312 310 314 321 324 338 330 324 325 324 330 321 320 309 309 296 294
114 114 113 108 111 114 113 116 113 111 110 107 113 122 128 121 124 131 134 135 137 137 137 141 140 145 151 148 135 128 139 139 136 142 133 137 143 151 167 113 91 101 111 113 99 95 95 95 101 108 107 113 110 106 124 124 140 54 56 28 16 355 351 349 333 326 312 310 312 319 324 323 327 324 323 325 317 317 324 323 319 312 317 316 311
115 111 118 120 119 120 113 112 115 116 110 110 116 118 114 124 130 136 149 150 150 150 152 156 156 159 154 145 143 143 152 158 157 153 147 138 126 117 108 101 113 112 108 103 97 94 103 120 119 122 125 163 164 155 126 85 75 76 38 22 10 5 352 337 330 325 323 325 319 320 318 322 319 316 317 317 318 318 328 331 325 318 318 325 315
118 118 119 119 113 114 119 123 117 112 109 87 66 65 120 135 113 73 36 50 126 152 152 143 145 144 131 137 143 153 156 163 161 129 133 136 125 118 121 123 120 114 118 118 108 112 122 132 146 155 151 120 91 89 77 42 2 51 89 39 25 355 345 335 330 321 331 338 319 316 311 312 310 318 316 313 316 326 333 329 329 326 325 321 311
122 120 121 119 124 125 123 115 112 114 111 105 97 74 55 57 62 94 89 65 61 54 67 114 122 123 108 79 90 143 156 128 129 130 134 130 126 127 129 132 133 130 137 136 135 140 148 128 126 120 116 120 122 219 141 219 355 38 10 36 23 7 335 340 329 8 0 338 322 308 309 317 319 320 321 318 322 328 334 329 324 322 317 316 314
126 131 130 136 137 130 123 124 126 117 118 116 104 102 93 69 70 75 82 80 82 85 88 88 89 97 114 112 87 95 108 122 127 124 126 126 127 126 127 129 130 135 140 136 143 138 143 133 141 141 148 160 158 145 125 118 33 52 13 37 359 331 343 3 42 31 353 321 302 316 330 335 328 331 326 326 323 323 326 323 321 321 320 320 315
137 143 141 134 132 129 121 120 124 123 118 118 117 119 111 107 84 75 81 85 88 90 93 96 100 103 105 108 110 101 110 117 120 123 127 128 128 129 130 133 139 145 151 143 129 135 140 148 141 129 139 151 153 150 154 149 220 100 46 341 331 20 65 51 38 19 313 305 327 333 334 333 329 328 325 321 322 320 325 324 323 320 318 318 314
143 141 137 137 130 131 126 128 128 127 134 132 129 125 126 125 121 112 86 84 86 88 90 95 100 104 106 107 111 120 124 126 126 128 130 133 135 140 144 144 148 147 148 150 138 147 144 149 156 160 160 164 166 153 176 139 118 88 22 77 46 34 61 48 9 286 298 328 331 318 328 322 321 322 317 320 323 323 322 319 318 316 316 316 314
146 150 148 146 136 125 125 136 134 132 123 126 128 124 117 122 126 125 125 119 95 85 86 94 101 106 110 117 121 124 126 129 131 134 136 134 131 122 112 107 110 123 147 152 148 161 161 159 166 157 140 124 123 97 116 111 94 114 101 65 89 75 76 219 216 312 359 312 326 299 309 324 322 309 310 316 315 317 314 312 315 314 318 316 312
108 105 120 130 86 124 131 128 128 129 131 132 130 126 121 121 127 131 137 130 125 122 118 110 110 111 117 121 124 124 126 126 127 128 125 125 128 132 126 123 129 96 89 75 97 100 110 122 111 105 115 127 128 136 136 115 141 129 131 131 139 135 134 208 208 219 272 301 307 308 310 316 294 303 309 308 306 307 305 307 310 315 314 310 307
117 104 127 131 128 127 129 132 131 133 134 129 115 107 114 119 125 123 114 98 106 112 98 77 88 113 112 110 109 109 106 104 106 108 113 119 130 147 148 166 148 144 124 114 103 83 80 89 108 121 118 120 125 126 126 135 135 122 98 114 199 152 165 210 226 175 290 286 261 264 286 292 302 302 296 294 287 288 296 304 306 310 307 300 298
120 118 127 134 135 103 110 116 121 119 112 100 106 112 112 113 114 121 121 122 120 109 114 121 102 81 69 67 100 101 94 90 88 89 95 119 154 164 188 180 134 127 131 129 123 126 125 115 111 117 125 133 128 128 117 122 112 109 180 169 142 170 259 172 197 195 274 276 284 284 268 263 268 277 272 276 290 292 293 305 312 304 305 307 309
134 137 131 133 125 120 118 104 101 111 107 103 106 117 115 117 121 117 126 130 133 136 134 139 131 129 128 108 66 76 89 90 90 82 79 79 80 91 82 69 108 134 135 125 128 131 125 124 128 129 127 124 122 122 131 140 148 155 165 165 198 193 215 225 252 216 224 242 240 243 253 266 264 250 264 270 274 279 289 297 297 299 299 303 305
92 102 117 123 125 122 114 113 119 122 111 126 129 126 131 131 128 127 128 140 142 146 143 142 148 144 130 128 117 117 112 132 154 156 128 96 68 57 78 105 109 104 114 124 124 128 131 139 131 122 118 121 128 132 135 161 154 162 168 160 210 208 204 211 208 198 210 225 248 263 249 256 261 269 262 261 266 267 280 278 278 282 289 292 295
117 124 115 118 121 111 103 117 124 117 127 135 140 138 134 141 142 145 145 147 156 158 159 150 155 151 147 146 140 151 159 170 156 151 146 134 113 83 98 120 130 135 139 139 140 132 130 129 130 132 131 123 134 148 156 149 171 165 172 199 193 220 216 196 198 208 216 237 229 244 248 249 257 256 260 247 246 259 259 264 270 273 271 274 280
114 105 114 101 103 116 116 121 124 132 126 136 141 143 146 139 135 139 145 150 153 157 162 168 154 139 153 159 166 170 177 163 135 132 132 128 125 138 144 121 124 129 128 137 137 135 131 129 136 138 142 146 146 153 167 168 180 182 189 202 211 210 207 211 201 208 226 221 229 235 246 248 248 245 250 257 259 253 248 254 257 260 266 273 275
116 119 113 115 123 121 125 116 109 110 118 129 141 145 140 140 143 146 144 152 156 148 143 151 129 120 166 172 179 187 157 99 115 124 112 117 133 154 133 104 99 114 125 129 133 138 133 127 137 146 155 161 160 168 168 181 188 195 200 203 205 207 212 211 202 205 203 215 225 227 232 240 243 245 249 254 244 244 251 249 246 256 259 258 262
82 90 98 111 110 107 97 102 100 109 101 105 108 98 107 120 135 133 144 149 154 158 155 151 137 136 158 173 182 169 98 111 111 127 133 146 151 143 141 150 132 109 85 82 87 107 126 135 152 161 164 176 176 175 183 188 187 196 203 203 208 209 212 217 215 199 196 211 225 230 227 239 255 254 243 237 242 247 244 246 251 250 256 263 257
96 90 81 76 73 73 78 92 93 63 64 87 90 89 99 102 95 112 130 135 147 149 141 139 138 146 145 159 143 109 105 113 135 137 144 148 151 158 155 141 125 119 115 119 116 110 120 139 157 170 148 152 173 182 189 193 191 195 209 204 209 212 214 213 213 210 204 207 215 215 217 220 231 240 253 255 246 246 249 242 239 244 253 262 267
91 99 102 97 88 83 75 58 62 81 102 102 96 95 101 104 113 109 119 130 132 129 129 132 134 138 147 143 148 137 114 115 128 117 152 162 155 162 158 140 136 154 150 152 145 140 150 172 186 192 204 205 186 193 210 215 211 208 209 208 216 220 218 212 211 206 202 199 216 230 236 232 229 231 239 245 238 233 241 237 228 238 249 252 259
94 91 88 93 94 85 86 86 88 104 111 106 114 114 103 89 94 109 119 114 118 120 115 115 122 127 138 138 137 134 126 108 129 157 169 170 170 169 158 155 154 160 179 177 162 163 184 186 199 210 212 216 212 205 206 210 214 216 218 220 222 227 225 210 197 192 198 191 211 223 234 238 239 236 242 247 258 253 245 248 246 237 231 242 247
81 87 86 85 86 83 82 93 103 90 86 82 76 86 90 87 84 82 81 94 104 104 104 105 115 128 123 134 135 125 127 148 175 182 189 189 172 167 155 147 155 175 185 183 179 178 193 206 212 216 223 223 217 214 218 217 209 210 214 220 225 225 225 217 209 202 208 210 205 210 230 237 238 237 243 242 240 246 250 245 230 231 231 240 239
79 76 73 79 85 90 86 83 84 79 72 74 75 77 78 89 94 93 94 91 84 85 86 87 93 110 109 100 106 113 139 168 184 181 179 184 195 203 192 185 189 199 189 197 199 200 206 211 214 218 225 226 226 228 223 222 227 225 219 216 215 216 215 209 212 212 207 203 204 212 219 233 244 243 243 235 233 239 247 246 239 235 229 224 232
74 84 89 81 79 80 88 92 92 87 85 82 87 90 81 83 79 83 87 88 90 84 92 105 102 89 97 116 118 148 166 181 209 207 206 214 199 196 193 200 201 207 206 218 215 210 212 219 221 220 223 229 226 226 228 224 225 226 226 227 223 217 213 210 208 209 206 205 215 214 217 221 229 235 238 241 238 236 241 248 249 247 249 241 234
64 64 79 84 82 78 69 68 70 77 80 87 86 86 84 82 83 84 83 83 85 93 91 100 118 133 145 167 167 191 195 205 216 216 215 213 206 194 196 204 203 213 221 232 236 230 221 220 223 230 231 231 232 230 227 226 225 227 230 227 232 232 226 217 214 214 211 210 208 211 211 221 225 229 230 231 231 233 235 238 232 235 233 233 230
75 74 69 74 78 76 75 81 77 72 72 76 80 87 92 90 88 90 94 98 112 124 134 148 148 169 188 196 188 199 211 220 222 224 224 216 211 205 212 217 230 229 236 240 244 242 237 232 229 228 227 228 231 232 230 231 228 226 231 233 235 237 232 224 221 222 217 213 211 213 219 219 220 224 226 225 221 221 224 226 226 224 228 228 228